| time (UTC) | temp F | wind direction | speed MPH | gust MPH | rain 1hr in | rain 24hr in | rain mn in | humidity % | barometer mb |
| 20260505124918 | 61 | 110 | 1.0 | 5.0 | 0.00 | 0.09 | 0.00 | 80 | 1011.6 |
| 20260505124416 | 61 | 110 | 2.0 | 7.0 | 0.00 | 0.09 | 0.00 | 81 | 1011.5 |
| 20260505123921 | 61 | 110 | 4.0 | 10.0 | 0.00 | 0.09 | 0.00 | 82 | 1011.4 |
| 20260505123417 | 61 | 110 | 8.0 | 10.0 | 0.00 | 0.09 | 0.00 | 82 | 1011.4 |
| 20260505122916 | 61 | 110 | 7.0 | 7.0 | 0.00 | 0.09 | 0.00 | 83 | 1011.4 |
| 20260505122416 | 61 | 110 | 3.0 | 5.0 | 0.00 | 0.09 | 0.00 | 83 | 1011.5 |
| 20260505121916 | 61 | 110 | 1.0 | 4.0 | 0.00 | 0.09 | 0.00 | 83 | 1011.4 |
| 20260505121416 | 61 | 110 | 1.0 | 5.0 | 0.00 | 0.09 | 0.00 | 82 | 1011.4 |
| 20260505120916 | 61 | 110 | 2.0 | 5.0 | 0.00 | 0.09 | 0.00 | 82 | 1011.4 |
| 20260505120416 | 61 | 110 | 1.0 | 4.0 | 0.00 | 0.09 | 0.00 | 82 | 1011.3 |
| 20260505115916 | 61 | 110 | 3.0 | 5.0 | 0.00 | 0.09 | 0.00 | 81 | 1011.3 |
| 20260505115416 | 61 | 110 | 4.0 | 7.0 | 0.00 | 0.09 | 0.00 | 80 | 1011.1 |
| 20260505114916 | 61 | 110 | 4.0 | 7.0 | 0.00 | 0.09 | 0.00 | 81 | 1011.2 |
| 20260505114416 | 61 | 110 | 4.0 | 9.0 | 0.00 | 0.09 | 0.00 | 81 | 1011.3 |
| 20260505113916 | 61 | 110 | 5.0 | 9.0 | 0.00 | 0.09 | 0.00 | 82 | 1011.3 |
| 20260505113416 | 61 | 110 | 3.0 | 8.0 | 0.00 | 0.09 | 0.00 | 82 | 1011.3 |
| 20260505112916 | 61 | 110 | 1.0 | 8.0 | 0.00 | 0.09 | 0.00 | 82 | 1011.4 |
| 20260505112421 | 61 | 110 | 1.0 | 11.0 | 0.00 | 0.09 | 0.00 | 83 | 1011.4 |
| 20260505111916 | 61 | 110 | 2.0 | 9.0 | 0.00 | 0.09 | 0.00 | 83 | 1011.4 |
| 20260505111416 | 61 | 110 | 2.0 | 12.0 | 0.00 | 0.09 | 0.00 | 83 | 1011.4 |
| 20260505110916 | 61 | 110 | 9.0 | 13.0 | 0.00 | 0.09 | 0.00 | 84 | 1011.5 |
| 20260505110422 | 61 | 110 | 8.0 | 14.0 | 0.00 | 0.09 | 0.00 | 84 | 1011.5 |
| 20260505101916 | 61 | 110 | 2.0 | 7.0 | 0.00 | 0.09 | 0.00 | 83 | 1012.3 |
| 20260505101416 | 61 | 110 | 3.0 | 9.0 | 0.01 | 0.09 | 0.00 | 82 | 1012.4 |
| 20260505100916 | 61 | 110 | 4.0 | 11.0 | 0.01 | 0.09 | 0.00 | 83 | 1012.4 |
| 20260505100416 | 61 | 110 | 4.0 | 9.0 | 0.01 | 0.09 | 0.00 | 83 | 1012.4 |
| 20260505095916 | 61 | 110 | 4.0 | 10.0 | 0.01 | 0.09 | 0.00 | 83 | 1012.4 |
| 20260505095416 | 61 | 110 | 4.0 | 9.0 | 0.02 | 0.09 | 0.00 | 84 | 1012.4 |
| 20260505094916 | 61 | 110 | 5.0 | 9.0 | 0.02 | 0.09 | 0.00 | 84 | 1012.3 |
| 20260505094416 | 61 | 110 | 5.0 | 11.0 | 0.03 | 0.09 | 0.00 | 84 | 1012.4 |
| 20260505093916 | 61 | 110 | 9.0 | 11.0 | 0.04 | 0.09 | 0.00 | 85 | 1012.5 |
| 20260505093416 | 60 | 110 | 8.0 | 9.0 | 0.04 | 0.09 | 0.00 | 85 | 1012.6 |
| 20260505092916 | 60 | 110 | 8.0 | 8.0 | 0.04 | 0.09 | 0.00 | 86 | 1012.7 |
| 20260505092416 | 60 | 110 | 2.0 | 10.0 | 0.05 | 0.09 | 0.00 | 86 | 1012.7 |
| 20260505091918 | 60 | 110 | 7.0 | 10.0 | 0.05 | 0.09 | 0.00 | 86 | 1013.0 |
| 20260505091416 | 60 | 110 | 3.0 | 8.0 | 0.06 | 0.08 | 0.00 | 86 | 1013.1 |
| 20260505090916 | 60 | 110 | 5.0 | 12.0 | 0.06 | 0.08 | 0.00 | 87 | 1013.0 |
| 20260505090416 | 60 | 110 | 4.0 | 8.0 | 0.07 | 0.08 | 0.00 | 86 | 1013.1 |
| 20260505085916 | 60 | 110 | 2.0 | 9.0 | 0.08 | 0.08 | 0.00 | 86 | 1013.3 |
| 20260505085416 | 59 | 110 | 2.0 | 7.0 | 0.07 | 0.07 | 0.00 | 86 | 1013.5 |
| 20260505084917 | 59 | 110 | 5.0 | 9.0 | 0.07 | 0.07 | 0.00 | 86 | 1013.5 |
| 20260505084416 | 59 | 110 | 5.0 | 10.0 | 0.06 | 0.06 | 0.00 | 85 | 1013.4 |
| 20260505083917 | 60 | 110 | 7.0 | 10.0 | 0.05 | 0.05 | 0.00 | 84 | 1013.5 |
| 20260505083416 | 60 | 110 | 3.0 | 9.0 | 0.05 | 0.05 | 0.00 | 83 | 1013.7 |
| 20260505082916 | 60 | 110 | 3.0 | 9.0 | 0.04 | 0.04 | 0.00 | 82 | 1013.6 |
| 20260505082416 | 60 | 110 | 3.0 | 9.0 | 0.04 | 0.04 | 0.00 | 81 | 1013.8 |
| 20260505081916 | 60 | 110 | 7.0 | 15.0 | 0.04 | 0.04 | 0.00 | 79 | 1013.7 |
| 20260505081416 | 61 | 110 | 3.0 | 10.0 | 0.02 | 0.02 | 0.00 | 78 | 1013.9 |
| 20260505080917 | 61 | 110 | 4.0 | 15.0 | 0.02 | 0.02 | 0.00 | 76 | 1013.9 |
| 20260505080416 | 62 | 110 | 9.0 | 11.0 | 0.01 | 0.01 | 0.00 | 75 | 1013.8 |
| 20260505075916 | 62 | 110 | 5.0 | 9.0 | 0.00 | 0.00 | 0.00 | 72 | 1013.7 |
| 20260505075416 | 63 | 110 | 4.0 | 12.0 | 0.00 | 0.00 | 0.00 | 70 | 1013.6 |
| 20260505074916 | 63 | 110 | 3.0 | 10.0 | 0.00 | 0.00 | 0.00 | 67 | 1013.6 |
| 20260505074417 | 64 | 110 | 5.0 | 11.0 | 0.00 | 0.00 | 0.00 | 65 | 1013.5 |
| 20260505073916 | 64 | 110 | 4.0 | 13.0 | 0.00 | 0.00 | 0.00 | 63 | 1013.5 |
| 20260505073416 | 65 | 110 | 4.0 | 12.0 | 0.00 | 0.00 | 0.00 | 62 | 1013.6 |
| 20260505072917 | 66 | 110 | 5.0 | 11.0 | 0.00 | 0.00 | 0.00 | 57 | 1013.5 |
| 20260505072416 | 66 | 110 | 5.0 | 9.0 | 0.00 | 0.00 | 0.00 | 54 | 1013.5 |
| 20260505071916 | 67 | 110 | 5.0 | 13.0 | 0.00 | 0.00 | 0.00 | 52 | 1013.5 |
| 20260505071416 | 67 | 110 | 8.0 | 14.0 | 0.00 | 0.00 | 0.00 | 50 | 1013.4 |
| 20260505070916 | 67 | 110 | 3.0 | 15.0 | 0.00 | 0.00 | 0.00 | 49 | 1013.3 |
| 20260505070416 | 67 | 110 | 3.0 | 15.0 | 0.00 | 0.00 | 0.00 | 48 | 1013.3 |
| 20260505065916 | 67 | 110 | 9.0 | 16.0 | 0.00 | 0.00 | 0.00 | 47 | 1013.3 |
| 20260505065416 | 68 | 110 | 8.0 | 14.0 | 0.00 | 0.00 | 0.00 | 46 | 1013.1 |
| 20260505064917 | 68 | 110 | 5.0 | 14.0 | 0.00 | 0.00 | 0.00 | 44 | 1012.9 |
| 20260505064416 | 68 | 110 | 9.0 | 15.0 | 0.00 | 0.00 | 0.00 | 43 | 1012.8 |
| 20260505063917 | 68 | 110 | 7.0 | 15.0 | 0.00 | 0.00 | 0.00 | 42 | 1012.8 |
| 20260505063416 | 68 | 110 | 5.0 | 15.0 | 0.00 | 0.00 | 0.00 | 41 | 1012.8 |
| 20260505062917 | 68 | 110 | 8.0 | 10.0 | 0.00 | 0.00 | 0.00 | 41 | 1012.8 |
| 20260505062416 | 68 | 110 | 8.0 | 10.0 | 0.00 | 0.00 | 0.00 | 41 | 1012.8 |
| 20260505061916 | 68 | 110 | 5.0 | 11.0 | 0.00 | 0.00 | 0.00 | 41 | 1012.8 |
| 20260505061416 | 68 | 110 | 8.0 | 11.0 | 0.00 | 0.00 | 0.00 | 41 | 1012.9 |
| 20260505060916 | 68 | 110 | 7.0 | 10.0 | 0.00 | 0.00 | 0.00 | 41 | 1012.7 |
| 20260505060417 | 69 | 110 | 4.0 | 9.0 | 0.00 | 0.00 | 0.00 | 41 | 1012.8 |
| 20260505055916 | 69 | 110 | 2.0 | 8.0 | 0.00 | 0.00 | 0.00 | 41 | 1013.0 |
| 20260505055416 | 69 | 110 | 5.0 | 9.0 | 0.00 | 0.00 | 0.00 | 41 | 1013.0 |
| 20260505054916 | 69 | 110 | 7.0 | 11.0 | 0.00 | 0.00 | 0.00 | 40 | 1013.0 |
| 20260505054416 | 69 | 110 | 5.0 | 10.0 | 0.00 | 0.00 | 0.00 | 39 | 1013.1 |
| 20260505053916 | 69 | 110 | 7.0 | 11.0 | 0.00 | 0.00 | 0.00 | 38 | 1013.2 |
| 20260505053416 | 69 | 110 | 4.0 | 10.0 | 0.00 | 0.00 | 0.00 | 38 | 1013.2 |
| 20260505052916 | 69 | 110 | 3.0 | 12.0 | 0.00 | 0.00 | 0.00 | 38 | 1013.3 |
| 20260505052417 | 69 | 110 | 8.0 | 12.0 | 0.00 | 0.00 | 0.00 | 37 | 1013.4 |
| 20260505051916 | 69 | 110 | 3.0 | 11.0 | 0.00 | 0.00 | 0.00 | 37 | 1013.3 |
| 20260505051416 | 69 | 110 | 5.0 | 13.0 | 0.00 | 0.00 | 0.00 | 37 | 1013.3 |
| 20260505050916 | 69 | 110 | 7.0 | 14.0 | 0.00 | 0.00 | 0.00 | 37 | 1013.4 |
| 20260505050416 | 69 | 110 | 5.0 | 13.0 | 0.00 | 0.00 | 0.00 | 36 | 1013.5 |
| 20260505041417 | 70 | 110 | 9.0 | 17.0 | 0.00 | 0.00 | 0.00 | 34 | 1012.9 |
| 20260505040916 | 70 | 110 | 8.0 | 15.0 | 0.00 | 0.00 | 0.00 | 34 | 1012.8 |
| 20260505040416 | 71 | 110 | 5.0 | 21.0 | 0.00 | 0.00 | 0.00 | 34 | 1012.8 |
| 20260505035917 | 71 | 110 | 8.0 | 16.0 | 0.00 | 0.00 | 0.00 | 33 | 1012.7 |
| 20260505035416 | 71 | 110 | 4.0 | 14.0 | 0.00 | 0.00 | 0.00 | 33 | 1012.6 |
| 20260505034916 | 71 | 110 | 14.0 | 17.0 | 0.00 | 0.00 | 0.00 | 33 | 1012.5 |
| 20260505034416 | 71 | 110 | 11.0 | 21.0 | 0.00 | 0.00 | 0.00 | 33 | 1012.4 |
| 20260505033916 | 72 | 110 | 10.0 | 19.0 | 0.00 | 0.00 | 0.00 | 32 | 1012.5 |
| 20260505033417 | 73 | 110 | 7.0 | 16.0 | 0.00 | 0.00 | 0.00 | 31 | 1012.2 |
| 20260505032916 | 73 | 110 | 9.0 | 13.0 | 0.00 | 0.00 | 0.00 | 31 | 1012.0 |
| 20260505032416 | 73 | 110 | 3.0 | 10.0 | 0.00 | 0.00 | 0.00 | 30 | 1012.0 |
| 20260505031916 | 73 | 110 | 3.0 | 13.0 | 0.00 | 0.00 | 0.00 | 30 | 1012.0 |
| 20260505031416 | 73 | 110 | 7.0 | 15.0 | 0.00 | 0.00 | 0.00 | 30 | 1011.9 |
| 20260505030917 | 73 | 110 | 10.0 | 15.0 | 0.00 | 0.00 | 0.00 | 30 | 1011.9 |
| 20260505030416 | 73 | 110 | 8.0 | 15.0 | 0.00 | 0.00 | 0.00 | 31 | 1011.8 |
| 20260505025916 | 73 | 110 | 7.0 | 15.0 | 0.00 | 0.00 | 0.00 | 31 | 1011.9 |
| 20260505025417 | 73 | 110 | 10.0 | 16.0 | 0.00 | 0.00 | 0.00 | 31 | 1011.8 |
| 20260505024916 | 74 | 110 | 13.0 | 16.0 | 0.00 | 0.00 | 0.00 | 31 | 1011.7 |
| 20260505024416 | 74 | 110 | 4.0 | 10.0 | 0.00 | 0.00 | 0.00 | 34 | 1011.9 |
| 20260505023917 | 74 | 110 | 5.0 | 8.0 | 0.00 | 0.00 | 0.00 | 37 | 1011.9 |
| 20260505023416 | 74 | 110 | 7.0 | 7.0 | 0.00 | 0.00 | 0.00 | 37 | 1012.0 |
| 20260505022916 | 74 | 110 | 2.0 | 8.0 | 0.00 | 0.00 | 0.00 | 37 | 1012.0 |
| 20260505022417 | 74 | 110 | 3.0 | 5.0 | 0.00 | 0.00 | 0.00 | 37 | 1011.9 |
| 20260505021916 | 74 | 110 | 2.0 | 5.0 | 0.00 | 0.00 | 0.00 | 37 | 1011.8 |
| 20260505021416 | 74 | 110 | 2.0 | 8.0 | 0.00 | 0.00 | 0.00 | 37 | 1011.6 |
| 20260505020918 | 74 | 110 | 1.0 | 7.0 | 0.00 | 0.00 | 0.00 | 37 | 1011.5 |
| 20260505020416 | 74 | 110 | 0.0 | 4.0 | 0.00 | 0.00 | 0.00 | 37 | 1011.4 |
| 20260505015916 | 74 | 110 | 3.0 | 5.0 | 0.00 | 0.00 | 0.00 | 37 | 1011.3 |
| 20260505015416 | 74 | 110 | 3.0 | 5.0 | 0.00 | 0.00 | 0.00 | 37 | 1011.1 |
| 20260505014916 | 74 | 110 | 4.0 | 7.0 | 0.00 | 0.00 | 0.00 | 37 | 1011.1 |
| 20260505014417 | 74 | 110 | 3.0 | 7.0 | 0.00 | 0.00 | 0.00 | 37 | 1011.2 |
| 20260505013916 | 75 | 110 | 3.0 | 9.0 | 0.00 | 0.00 | 0.00 | 36 | 1011.3 |
| 20260505013416 | 75 | 110 | 4.0 | 8.0 | 0.00 | 0.00 | 0.00 | 36 | 1011.5 |
| 20260505012916 | 75 | 110 | 4.0 | 7.0 | 0.00 | 0.00 | 0.00 | 36 | 1011.3 |
| 20260505012416 | 75 | 110 | 2.0 | 4.0 | 0.00 | 0.00 | 0.00 | 36 | 1011.3 |
| 20260505011916 | 75 | 110 | 3.0 | 7.0 | 0.00 | 0.00 | 0.00 | 36 | 1011.3 |
| 20260505011416 | 75 | 110 | 5.0 | 7.0 | 0.00 | 0.00 | 0.00 | 36 | 1011.3 |
| 20260505010917 | 75 | 110 | 4.0 | 8.0 | 0.00 | 0.00 | 0.00 | 36 | 1011.3 |
| 20260505010416 | 75 | 110 | 3.0 | 8.0 | 0.00 | 0.00 | 0.00 | 36 | 1011.3 |
| 20260505005916 | 75 | 110 | 5.0 | 9.0 | 0.00 | 0.00 | 0.00 | 36 | 1011.3 |
| 20260505005417 | 75 | 110 | 5.0 | 7.0 | 0.00 | 0.00 | 0.00 | 36 | 1011.2 |
| 20260505004917 | 75 | 110 | 2.0 | 7.0 | 0.00 | 0.00 | 0.00 | 36 | 1011.2 |
| 20260505004416 | 75 | 110 | 3.0 | 9.0 | 0.00 | 0.00 | 0.00 | 36 | 1011.4 |
| 20260505003916 | 76 | 110 | 3.0 | 8.0 | 0.00 | 0.00 | 0.00 | 35 | 1011.5 |
| 20260505003416 | 76 | 110 | 4.0 | 7.0 | 0.00 | 0.00 | 0.00 | 36 | 1011.5 |
| 20260505002916 | 76 | 110 | 5.0 | 5.0 | 0.00 | 0.00 | 0.00 | 35 | 1011.4 |
| 20260505002416 | 76 | 110 | 2.0 | 7.0 | 0.00 | 0.00 | 0.00 | 35 | 1011.5 |
| 20260505001916 | 76 | 110 | 5.0 | 9.0 | 0.00 | 0.00 | 0.00 | 34 | 1011.6 |
| 20260505001416 | 76 | 110 | 5.0 | 11.0 | 0.00 | 0.00 | 0.00 | 35 | 1011.7 |
| 20260505000916 | 76 | 110 | 5.0 | 11.0 | 0.00 | 0.00 | 0.00 | 35 | 1011.7 |
| 20260505000416 | 77 | 110 | 5.0 | 9.0 | 0.00 | 0.00 | 0.00 | 34 | 1011.8 |
| 20260504235916 | 77 | 110 | 7.0 | 12.0 | 0.00 | 0.00 | 0.00 | 32 | 1011.7 |
| 20260504235417 | 77 | 110 | 3.0 | 8.0 | 0.00 | 0.00 | 0.00 | 33 | 1011.6 |
| 20260504234916 | 77 | 110 | 4.0 | 9.0 | 0.00 | 0.00 | 0.00 | 33 | 1011.6 |
| 20260504234416 | 77 | 110 | 5.0 | 8.0 | 0.00 | 0.00 | 0.00 | 33 | 1011.5 |
| 20260504233916 | 77 | 110 | 2.0 | 9.0 | 0.00 | 0.00 | 0.00 | 32 | 1011.5 |
| 20260504233416 | 77 | 110 | 4.0 | 9.0 | 0.00 | 0.00 | 0.00 | 32 | 1011.4 |
| 20260504232916 | 77 | 110 | 3.0 | 9.0 | 0.00 | 0.00 | 0.00 | 32 | 1011.4 |
| 20260504232416 | 77 | 110 | 2.0 | 10.0 | 0.00 | 0.00 | 0.00 | 32 | 1011.5 |
| 20260504231917 | 77 | 110 | 5.0 | 10.0 | 0.00 | 0.00 | 0.00 | 32 | 1011.5 |
| 20260504231416 | 77 | 110 | 5.0 | 11.0 | 0.00 | 0.00 | 0.00 | 32 | 1011.5 |
| 20260504230916 | 77 | 110 | 8.0 | 11.0 | 0.00 | 0.00 | 0.00 | 32 | 1011.7 |
| 20260504230416 | 77 | 110 | 7.0 | 13.0 | 0.00 | 0.00 | 0.00 | 32 | 1011.7 |
| 20260504225916 | 77 | 110 | 5.0 | 13.0 | 0.00 | 0.00 | 0.00 | 32 | 1011.7 |
| 20260504225417 | 77 | 110 | 4.0 | 13.0 | 0.00 | 0.00 | 0.00 | 32 | 1011.8 |
| 20260504224916 | 77 | 110 | 9.0 | 12.0 | 0.00 | 0.00 | 0.00 | 32 | 1011.8 |
| 20260504224416 | 77 | 110 | 4.0 | 11.0 | 0.00 | 0.00 | 0.00 | 33 | 1011.8 |
| 20260504223917 | 77 | 110 | 9.0 | 12.0 | 0.00 | 0.00 | 0.00 | 33 | 1011.8 |
| 20260504223416 | 77 | 110 | 11.0 | 11.0 | 0.00 | 0.00 | 0.00 | 33 | 1011.8 |
| 20260504222916 | 77 | 110 | 11.0 | 13.0 | 0.00 | 0.00 | 0.00 | 34 | 1011.8 |
| 20260504222416 | 77 | 110 | 11.0 | 13.0 | 0.00 | 0.00 | 0.00 | 33 | 1011.7 |
| 20260504221917 | 77 | 110 | 4.0 | 7.0 | 0.00 | 0.00 | 0.00 | 34 | 1011.8 |
| 20260504221416 | 77 | 110 | 3.0 | 10.0 | 0.00 | 0.00 | 0.00 | 34 | 1011.9 |
| 20260504220916 | 77 | 110 | 7.0 | 10.0 | 0.00 | 0.00 | 0.00 | 34 | 1012.0 |
| 20260504220416 | 77 | 110 | 10.0 | 12.0 | 0.00 | 0.00 | 0.00 | 34 | 1012.1 |
| 20260504215916 | 77 | 110 | 4.0 | 14.0 | 0.00 | 0.00 | 0.00 | 34 | 1012.5 |
| 20260504215416 | 77 | 110 | 3.0 | 12.0 | 0.00 | 0.00 | 0.00 | 34 | 1012.6 |
| 20260504214917 | 77 | 110 | 8.0 | 14.0 | 0.00 | 0.00 | 0.00 | 34 | 1012.7 |
| 20260504214416 | 77 | 110 | 8.0 | 13.0 | 0.00 | 0.00 | 0.00 | 34 | 1012.9 |
| 20260504213916 | 77 | 110 | 5.0 | 12.0 | 0.00 | 0.00 | 0.00 | 33 | 1013.0 |
| 20260504213416 | 78 | 110 | 3.0 | 12.0 | 0.00 | 0.00 | 0.00 | 33 | 1013.0 |
| 20260504212916 | 78 | 110 | 11.0 | 13.0 | 0.00 | 0.00 | 0.00 | 33 | 1013.0 |
| 20260504212416 | 78 | 110 | 7.0 | 13.0 | 0.00 | 0.00 | 0.00 | 33 | 1012.9 |
| 20260504211916 | 78 | 110 | 9.0 | 14.0 | 0.00 | 0.00 | 0.00 | 33 | 1012.9 |
| 20260504211416 | 78 | 110 | 12.0 | 16.0 | 0.00 | 0.00 | 0.00 | 33 | 1012.9 |
| 20260504210916 | 78 | 110 | 3.0 | 14.0 | 0.00 | 0.00 | 0.00 | 33 | 1012.8 |
| 20260504210417 | 79 | 110 | 8.0 | 17.0 | 0.00 | 0.00 | 0.00 | 33 | 1012.7 |
| 20260504205916 | 78 | 110 | 8.0 | 11.0 | 0.00 | 0.00 | 0.00 | 33 | 1012.8 |
| 20260504205416 | 79 | 110 | 9.0 | 14.0 | 0.00 | 0.00 | 0.00 | 32 | 1012.7 |
| 20260504204916 | 79 | 110 | 5.0 | 15.0 | 0.00 | 0.00 | 0.00 | 32 | 1012.5 |
| 20260504204416 | 79 | 110 | 10.0 | 12.0 | 0.00 | 0.00 | 0.00 | 32 | 1012.7 |
| 20260504203916 | 79 | 110 | 9.0 | 15.0 | 0.00 | 0.00 | 0.00 | 32 | 1012.7 |
| 20260504203416 | 79 | 110 | 7.0 | 11.0 | 0.00 | 0.00 | 0.00 | 32 | 1012.7 |
| 20260504202916 | 78 | 110 | 7.0 | 12.0 | 0.00 | 0.00 | 0.00 | 33 | 1012.8 |
| 20260504202417 | 78 | 110 | 10.0 | 16.0 | 0.00 | 0.00 | 0.00 | 33 | 1012.7 |
| 20260504201916 | 78 | 110 | 9.0 | 14.0 | 0.00 | 0.00 | 0.00 | 32 | 1012.6 |
| 20260504201415 | 77 | 110 | 5.0 | 8.0 | 0.00 | 0.00 | 0.00 | 33 | 1012.7 |
| 20260504200916 | 78 | 110 | 7.0 | 12.0 | 0.00 | 0.00 | 0.00 | 32 | 1012.8 |
| 20260504200416 | 78 | 110 | 11.0 | 13.0 | 0.00 | 0.00 | 0.00 | 32 | 1013.0 |
| 20260504195916 | 79 | 110 | 8.0 | 13.0 | 0.00 | 0.00 | 0.00 | 30 | 1013.1 |
| 20260504195416 | 79 | 110 | 7.0 | 19.0 | 0.00 | 0.00 | 0.00 | 29 | 1013.1 |
| 20260504194916 | 79 | 110 | 10.0 | 16.0 | 0.00 | 0.00 | 0.00 | 29 | 1013.2 |
| 20260504194416 | 79 | 110 | 10.0 | 18.0 | 0.00 | 0.00 | 0.00 | 30 | 1013.1 |
| 20260504193916 | 79 | 110 | 12.0 | 16.0 | 0.00 | 0.00 | 0.00 | 29 | 1013.1 |
| 20260504193416 | 80 | 110 | 11.0 | 14.0 | 0.00 | 0.00 | 0.00 | 29 | 1013.1 |
| 20260504192916 | 80 | 110 | 4.0 | 14.0 | 0.00 | 0.00 | 0.00 | 29 | 1012.9 |
| 20260504192416 | 80 | 110 | 8.0 | 17.0 | 0.00 | 0.00 | 0.00 | 29 | 1012.9 |
| 20260504191916 | 79 | 110 | 10.0 | 12.0 | 0.00 | 0.00 | 0.00 | 31 | 1012.7 |
| 20260504191416 | 79 | 110 | 11.0 | 12.0 | 0.00 | 0.00 | 0.00 | 31 | 1012.7 |
| 20260504190915 | 79 | 110 | 9.0 | 17.0 | 0.00 | 0.00 | 0.00 | 30 | 1012.6 |
| 20260504190415 | 79 | 110 | 4.0 | 15.0 | 0.00 | 0.00 | 0.00 | 30 | 1012.6 |
| 20260504185916 | 79 | 110 | 7.0 | 13.0 | 0.00 | 0.00 | 0.00 | 30 | 1012.6 |
| 20260504185416 | 78 | 110 | 7.0 | 15.0 | 0.00 | 0.00 | 0.00 | 30 | 1012.8 |
| 20260504184916 | 79 | 110 | 9.0 | 14.0 | 0.00 | 0.00 | 0.00 | 30 | 1013.0 |
| 20260504184416 | 78 | 110 | 15.0 | 17.0 | 0.00 | 0.00 | 0.00 | 30 | 1013.1 |
| 20260504183916 | 78 | 110 | 8.0 | 13.0 | 0.00 | 0.00 | 0.00 | 30 | 1013.0 |
| 20260504183417 | 77 | 110 | 14.0 | 18.0 | 0.00 | 0.00 | 0.00 | 30 | 1013.1 |
| 20260504182915 | 78 | 110 | 11.0 | 17.0 | 0.00 | 0.00 | 0.00 | 29 | 1012.9 |
| 20260504182416 | 78 | 110 | 8.0 | 22.0 | 0.00 | 0.00 | 0.00 | 29 | 1013.0 |
| 20260504181916 | 77 | 110 | 8.0 | 16.0 | 0.00 | 0.00 | 0.00 | 30 | 1013.1 |
| 20260504181416 | 77 | 110 | 7.0 | 14.0 | 0.00 | 0.00 | 0.00 | 30 | 1012.9 |
| 20260504180917 | 77 | 110 | 4.0 | 13.0 | 0.00 | 0.00 | 0.00 | 30 | 1012.9 |
| 20260504180415 | 78 | 110 | 8.0 | 16.0 | 0.00 | 0.00 | 0.00 | 29 | 1012.8 |
| 20260504175915 | 77 | 110 | 3.0 | 14.0 | 0.00 | 0.00 | 0.00 | 30 | 1013.0 |
| 20260504175416 | 77 | 110 | 3.0 | 15.0 | 0.00 | 0.00 | 0.00 | 29 | 1013.0 |
| 20260504174916 | 77 | 110 | 4.0 | 14.0 | 0.00 | 0.00 | 0.00 | 31 | 1013.2 |
| 20260504174416 | 77 | 110 | 7.0 | 13.0 | 0.00 | 0.00 | 0.00 | 30 | 1013.1 |
| 20260504173915 | 78 | 110 | 2.0 | 15.0 | 0.00 | 0.00 | 0.00 | 28 | 1013.2 |
| 20260504173416 | 78 | 110 | 10.0 | 19.0 | 0.00 | 0.00 | 0.00 | 29 | 1013.3 |
| 20260504172916 | 78 | 110 | 12.0 | 22.0 | 0.00 | 0.00 | 0.00 | 25 | 1013.4 |
| 20260504172416 | 78 | 110 | 8.0 | 19.0 | 0.00 | 0.00 | 0.00 | 28 | 1013.6 |
| 20260504171916 | 77 | 110 | 8.0 | 13.0 | 0.00 | 0.00 | 0.00 | 30 | 1013.7 |
| 20260504171416 | 77 | 110 | 4.0 | 14.0 | 0.00 | 0.00 | 0.00 | 31 | 1013.5 |
| 20260504170916 | 77 | 110 | 13.0 | 16.0 | 0.00 | 0.00 | 0.00 | 31 | 1013.6 |
| 20260504170416 | 78 | 110 | 10.0 | 16.0 | 0.00 | 0.00 | 0.00 | 30 | 1013.6 |
| 20260504160416 | 75 | 110 | 7.0 | 12.0 | 0.00 | 0.00 | 0.00 | 38 | 1013.5 |
| 20260504150916 | 73 | 110 | 9.0 | 10.0 | 0.00 | 0.00 | 0.00 | 41 | 1013.0 |
| 20260504150415 | 73 | 110 | 5.0 | 12.0 | 0.00 | 0.00 | 0.00 | 41 | 1012.9 |
| 20260504140915 | 72 | 110 | 2.0 | 7.0 | 0.00 | 0.00 | 0.00 | 41 | 1012.7 |
| 20260504140415 | 72 | 110 | 4.0 | 7.0 | 0.00 | 0.00 | 0.00 | 41 | 1012.7 |
| 20260504130417 | 71 | 110 | 0.0 | 4.0 | 0.00 | 0.00 | 0.00 | 41 | 1012.1 |